Time,TemperatureF,DewpointF,PressureIn,WindDirection,WindDirectionDegrees,WindSpeedMPH,WindSpeedGustMPH,Humidity,HourlyPrecipIn,Conditions,Clouds,dailyrainin,SoftwareType,DateUTC
2013-03-24 00:02:00,10.0,5.0,-100.00,West,271,3.0,5.0,79,-99.99,,,-99.99,,2013-03-24 06:02:00,
2013-03-24 00:12:00,10.0,5.0,-100.00,West,271,3.0,5.0,79,-99.99,,,-99.99,,2013-03-24 06:12:00,
2013-03-24 00:21:00,10.0,5.0,-100.00,WNW,286,4.0,4.0,79,-99.99,,,-99.99,,2013-03-24 06:21:00,
2013-03-24 00:32:00,10.0,5.0,-100.00,North,0,0.0,2.0,80,-99.99,,,-99.99,,2013-03-24 06:32:00,
2013-03-24 00:42:00,10.0,5.0,-100.00,WNW,288,0.0,1.0,80,-99.99,,,-99.99,,2013-03-24 06:42:00,
2013-03-24 00:52:00,10.0,5.0,-100.00,WNW,288,0.0,1.0,80,-99.99,,,-99.99,,2013-03-24 06:52:00,
2013-03-24 01:02:00,10.0,5.0,-100.00,North,0,0.0,1.0,80,-99.99,,,-99.99,,2013-03-24 07:02:00,
2013-03-24 01:11:00,10.0,5.0,-100.00,WNW,288,0.0,1.0,81,-99.99,,,-99.99,,2013-03-24 07:11:00,
2013-03-24 01:21:00,10.0,5.0,-100.00,WNW,288,0.0,1.0,81,-99.99,,,-99.99,,2013-03-24 07:21:00,
2013-03-24 01:32:00,9.0,4.0,-100.00,WNW,288,1.0,2.0,81,-99.99,,,-99.99,,2013-03-24 07:32:00,
2013-03-24 01:42:00,9.0,5.0,-100.00,WNW,288,2.0,2.0,81,-99.99,,,-99.99,,2013-03-24 07:42:00,
2013-03-24 01:52:00,9.0,5.0,-100.00,WNW,288,2.0,2.0,81,-99.99,,,-99.99,,2013-03-24 07:52:00,
2013-03-24 02:02:00,9.0,5.0,-100.00,WNW,288,2.0,2.0,81,-99.99,,,-99.99,,2013-03-24 08:02:00,
2013-03-24 02:12:00,9.0,4.0,-100.00,WNW,288,1.0,2.0,81,-99.99,,,-99.99,,2013-03-24 08:12:00,
2013-03-24 02:21:00,9.0,4.0,-100.00,WNW,288,1.0,2.0,81,-99.99,,,-99.99,,2013-03-24 08:21:00,
2013-03-24 02:32:00,9.0,4.0,-100.00,WNW,288,1.0,2.0,81,-99.99,,,-99.99,,2013-03-24 08:32:00,
2013-03-24 02:41:00,8.0,3.0,-100.00,WNW,289,1.0,3.0,81,-99.99,,,-99.99,,2013-03-24 08:41:00,
2013-03-24 02:51:00,8.0,3.0,-100.00,WNW,289,1.0,3.0,81,-99.99,,,-99.99,,2013-03-24 08:51:00,
2013-03-24 03:02:00,7.0,3.0,-100.00,North,0,0.0,2.0,81,-99.99,,,-99.99,,2013-03-24 09:02:00,
2013-03-24 03:12:00,7.0,3.0,-100.00,North,0,0.0,2.0,81,-99.99,,,-99.99,,2013-03-24 09:12:00,
2013-03-24 03:21:00,7.0,3.0,-100.00,WNW,288,0.0,1.0,82,-99.99,,,-99.99,,2013-03-24 09:21:00,
2013-03-24 03:33:00,7.0,3.0,-100.00,WNW,288,0.0,1.0,82,-99.99,,,-99.99,,2013-03-24 09:33:00,
2013-03-24 03:42:00,7.0,3.0,-100.00,North,0,0.0,1.0,82,-99.99,,,-99.99,,2013-03-24 09:42:00,
2013-03-24 03:52:00,7.0,3.0,-100.00,North,0,0.0,1.0,82,-99.99,,,-99.99,,2013-03-24 09:52:00,
2013-03-24 04:02:00,7.0,2.0,-100.00,North,0,0.0,2.0,82,-99.99,,,-99.99,,2013-03-24 10:02:00,
2013-03-24 04:12:00,7.0,2.0,-100.00,North,0,0.0,2.0,82,-99.99,,,-99.99,,2013-03-24 10:12:00,
2013-03-24 04:22:00,7.0,3.0,-100.00,West,263,0.0,0.0,82,-99.99,,,-99.99,,2013-03-24 10:22:00,
2013-03-24 04:32:00,7.0,3.0,-100.00,West,263,0.0,0.0,82,-99.99,,,-99.99,,2013-03-24 10:32:00,
2013-03-24 04:42:00,6.0,2.0,-100.00,North,0,0.0,3.0,82,-99.99,,,-99.99,,2013-03-24 10:42:00,
2013-03-24 04:52:00,6.0,2.0,-100.00,North,0,0.0,3.0,82,-99.99,,,-99.99,,2013-03-24 10:52:00,
2013-03-24 05:02:00,6.0,2.0,-100.00,North,0,0.0,3.0,82,-99.99,,,-99.99,,2013-03-24 11:02:00,
2013-03-24 05:12:00,7.0,2.0,-100.00,NW,317,1.0,2.0,82,-99.99,,,-99.99,,2013-03-24 11:12:00,
2013-03-24 05:21:00,7.0,2.0,-100.00,NW,317,1.0,2.0,82,-99.99,,,-99.99,,2013-03-24 11:21:00,
2013-03-24 05:32:00,6.0,1.0,-100.00,NNE,16,1.0,2.0,82,-99.99,,,-99.99,,2013-03-24 11:32:00,
2013-03-24 05:42:00,6.0,1.0,-100.00,NNE,16,1.0,2.0,82,-99.99,,,-99.99,,2013-03-24 11:42:00,
2013-03-24 05:51:00,6.0,2.0,-100.00,North,0,0.0,1.0,83,-99.99,,,-99.99,,2013-03-24 11:51:00,
2013-03-24 06:02:00,6.0,2.0,-100.00,North,0,0.0,1.0,83,-99.99,,,-99.99,,2013-03-24 12:02:00,
2013-03-24 06:12:00,6.0,2.0,-100.00,ENE,70,2.0,2.0,83,-99.99,,,-99.99,,2013-03-24 12:12:00,
2013-03-24 06:22:00,7.0,3.0,-100.00,ENE,73,1.0,2.0,83,-99.99,,,-99.99,,2013-03-24 12:22:00,
2013-03-24 06:32:00,7.0,3.0,-100.00,ENE,73,1.0,2.0,83,-99.99,,,-99.99,,2013-03-24 12:32:00,
2013-03-24 06:42:00,6.0,2.0,-100.00,ENE,73,0.0,1.0,83,-99.99,,,-99.99,,2013-03-24 12:42:00,
2013-03-24 06:52:00,6.0,2.0,-100.00,ENE,73,1.0,2.0,83,-99.99,,,-99.99,,2013-03-24 12:52:00,
2013-03-24 07:02:00,6.0,1.0,-100.00,ENE,73,1.0,2.0,82,-99.99,,,-99.99,,2013-03-24 13:02:00,
2013-03-24 07:12:00,6.0,1.0,-100.00,ENE,73,1.0,2.0,82,-99.99,,,-99.99,,2013-03-24 13:12:00,
2013-03-24 07:22:00,5.0,1.0,-100.00,ENE,73,2.0,2.0,83,-99.99,,,-99.99,,2013-03-24 13:22:00,
2013-03-24 07:32:00,5.0,1.0,-100.00,ENE,73,2.0,2.0,83,-99.99,,,-99.99,,2013-03-24 13:32:00,
2013-03-24 07:42:00,5.0,1.0,-100.00,North,0,0.0,0.0,83,-99.99,,,-99.99,,2013-03-24 13:42:00,
2013-03-24 07:52:00,6.0,2.0,-100.00,ENE,73,1.0,2.0,83,-99.99,,,-99.99,,2013-03-24 13:52:00,
2013-03-24 08:02:00,5.0,1.0,-100.00,WNW,296,4.0,4.0,83,-99.99,,,-99.99,,2013-03-24 14:02:00,
2013-03-24 08:12:00,5.0,2.0,-100.00,WNW,288,3.0,4.0,83,-99.99,,,-99.99,,2013-03-24 14:12:00,
2013-03-24 08:22:00,5.0,2.0,-100.00,WNW,288,3.0,4.0,83,-99.99,,,-99.99,,2013-03-24 14:22:00,
2013-03-24 08:32:00,5.0,2.0,-100.00,WNW,288,3.0,4.0,83,-99.99,,,-99.99,,2013-03-24 14:32:00,
2013-03-24 08:42:00,8.0,4.0,-100.00,WNW,288,0.0,2.0,83,-99.99,,,-99.99,,2013-03-24 14:42:00,
2013-03-24 08:51:00,8.0,4.0,-100.00,North,0,0.0,1.0,83,-99.99,,,-99.99,,2013-03-24 14:51:00,
2013-03-24 09:02:00,8.0,4.0,-100.00,North,0,0.0,1.0,83,-99.99,,,-99.99,,2013-03-24 15:02:00,
2013-03-24 09:12:00,10.0,6.0,-100.00,WNW,291,2.0,2.0,82,-99.99,,,-99.99,,2013-03-24 15:12:00,
2013-03-24 09:22:00,10.0,6.0,-100.00,WNW,291,2.0,2.0,82,-99.99,,,-99.99,,2013-03-24 15:22:00,
2013-03-24 09:33:00,10.0,6.0,-100.00,WNW,291,2.0,2.0,82,-99.99,,,-99.99,,2013-03-24 15:33:00,
2013-03-24 09:43:00,11.0,7.0,-100.00,SSE,158,1.0,3.0,81,-99.99,,,-99.99,,2013-03-24 15:43:00,
2013-03-24 09:52:00,12.0,7.0,-100.00,ESE,111,3.0,4.0,82,-99.99,,,-99.99,,2013-03-24 15:52:00,
2013-03-24 10:02:00,12.0,7.0,-100.00,ESE,111,3.0,4.0,82,-99.99,,,-99.99,,2013-03-24 16:02:00,
2013-03-24 10:12:00,14.0,10.0,-100.00,ESE,116,3.0,4.0,81,-99.99,,,-99.99,,2013-03-24 16:12:00,
2013-03-24 10:22:00,14.0,10.0,-100.00,ESE,116,3.0,4.0,81,-99.99,,,-99.99,,2013-03-24 16:22:00,
2013-03-24 10:32:00,16.0,11.0,-100.00,ESE,108,1.0,4.0,78,-99.99,,,-99.99,,2013-03-24 16:32:00,
2013-03-24 10:42:00,16.0,11.0,-100.00,ESE,108,1.0,4.0,78,-99.99,,,-99.99,,2013-03-24 16:42:00,
2013-03-24 10:52:00,17.0,11.0,-100.00,ESE,107,2.0,4.0,76,-99.99,,,-99.99,,2013-03-24 16:52:00,
2013-03-24 11:02:00,17.0,11.0,-100.00,ESE,107,2.0,4.0,76,-99.99,,,-99.99,,2013-03-24 17:02:00,
2013-03-24 11:12:00,19.0,12.0,-100.00,SE,131,2.0,4.0,76,-99.99,,,-99.99,,2013-03-24 17:12:00,
2013-03-24 11:22:00,19.0,13.0,-100.00,ENE,77,2.0,5.0,74,-99.99,,,-99.99,,2013-03-24 17:22:00,
2013-03-24 11:32:00,19.0,13.0,-100.00,ENE,77,2.0,5.0,74,-99.99,,,-99.99,,2013-03-24 17:32:00,
2013-03-24 11:42:00,23.0,14.0,-100.00,West,279,6.0,7.0,69,-99.99,,,-99.99,,2013-03-24 17:42:00,
2013-03-24 11:52:00,23.0,14.0,-100.00,West,279,6.0,7.0,69,-99.99,,,-99.99,,2013-03-24 17:52:00,
2013-03-24 12:02:00,22.0,14.0,-100.00,NW,313,6.0,10.0,70,-99.99,,,-99.99,,2013-03-24 18:02:00,
2013-03-24 12:12:00,22.0,15.0,-100.00,West,274,8.0,10.0,72,-99.99,,,-99.99,,2013-03-24 18:12:00,
2013-03-24 12:21:00,22.0,15.0,-100.00,West,274,8.0,10.0,72,-99.99,,,-99.99,,2013-03-24 18:21:00,
2013-03-24 12:32:00,22.0,15.0,-100.00,West,274,8.0,10.0,72,-99.99,,,-99.99,,2013-03-24 18:32:00,
2013-03-24 12:42:00,23.0,15.0,-100.00,NW,305,10.0,15.0,71,-99.99,,,-99.99,,2013-03-24 18:42:00,
2013-03-24 12:51:00,23.0,17.0,-100.00,WNW,290,12.0,15.0,79,-99.99,,,-99.99,,2013-03-24 18:51:00,
2013-03-24 13:02:00,23.0,17.0,-100.00,WNW,290,12.0,15.0,79,-99.99,,,-99.99,,2013-03-24 19:02:00,
2013-03-24 13:12:00,22.0,17.0,-100.00,West,278,8.0,16.0,78,-99.99,,,-99.99,,2013-03-24 19:12:00,
2013-03-24 13:22:00,23.0,16.0,-100.00,WNW,285,7.0,13.0,73,-99.99,,,-99.99,,2013-03-24 19:22:00,
2013-03-24 13:32:00,23.0,16.0,-100.00,WNW,285,7.0,13.0,73,-99.99,,,-99.99,,2013-03-24 19:32:00,
2013-03-24 13:42:00,24.0,14.0,-100.00,WNW,282,11.0,14.0,64,-99.99,,,-99.99,,2013-03-24 19:42:00,
2013-03-24 13:52:00,24.0,15.0,-100.00,WNW,285,9.0,16.0,65,-99.99,,,-99.99,,2013-03-24 19:52:00,
2013-03-24 14:02:00,24.0,15.0,-100.00,WNW,285,9.0,16.0,65,-99.99,,,-99.99,,2013-03-24 20:02:00,
2013-03-24 14:12:00,24.0,14.0,-100.00,WNW,298,12.0,18.0,65,-99.99,,,-99.99,,2013-03-24 20:12:00,
2013-03-24 14:22:00,25.0,15.0,-100.00,NW,316,6.0,15.0,65,-99.99,,,-99.99,,2013-03-24 20:22:00,
2013-03-24 14:32:00,25.0,15.0,-100.00,NW,316,6.0,15.0,65,-99.99,,,-99.99,,2013-03-24 20:32:00,
2013-03-24 14:42:00,26.0,14.0,-100.00,West,279,10.0,13.0,60,-99.99,,,-99.99,,2013-03-24 20:42:00,
2013-03-24 14:52:00,25.0,10.0,-100.00,WNW,283,13.0,22.0,51,-99.99,,,-99.99,,2013-03-24 20:52:00,
2013-03-24 15:02:00,25.0,10.0,-100.00,WNW,283,13.0,22.0,51,-99.99,,,-99.99,,2013-03-24 21:02:00,
2013-03-24 15:11:00,25.0,11.0,-100.00,WNW,289,10.0,13.0,52,-99.99,,,-99.99,,2013-03-24 21:11:00,
2013-03-24 15:22:00,26.0,12.0,-100.00,NW,312,8.0,18.0,54,-99.99,,,-99.99,,2013-03-24 21:22:00,
2013-03-24 15:32:00,26.0,12.0,-100.00,NW,312,8.0,18.0,54,-99.99,,,-99.99,,2013-03-24 21:32:00,
2013-03-24 15:43:00,26.0,13.0,-100.00,WNW,287,13.0,21.0,56,-99.99,,,-99.99,,2013-03-24 21:43:00,
2013-03-24 15:52:00,26.0,10.0,-100.00,West,280,10.0,20.0,48,-99.99,,,-99.99,,2013-03-24 21:52:00,
2013-03-24 16:02:00,26.0,10.0,-100.00,West,280,10.0,20.0,48,-99.99,,,-99.99,,2013-03-24 22:02:00,
2013-03-24 16:12:00,26.0,9.0,-100.00,West,271,10.0,16.0,46,-99.99,,,-99.99,,2013-03-24 22:12:00,
2013-03-24 16:22:00,27.0,10.0,-100.00,WNW,292,12.0,18.0,48,-99.99,,,-99.99,,2013-03-24 22:22:00,
2013-03-24 16:33:00,27.0,10.0,-100.00,WNW,292,12.0,18.0,48,-99.99,,,-99.99,,2013-03-24 22:33:00,
2013-03-24 16:42:00,27.0,13.0,-100.00,NW,318,9.0,16.0,55,-99.99,,,-99.99,,2013-03-24 22:42:00,
2013-03-24 16:52:00,26.0,11.0,-100.00,NW,313,8.0,15.0,52,-99.99,,,-99.99,,2013-03-24 22:52:00,
2013-03-24 17:02:00,26.0,11.0,-100.00,NW,313,8.0,15.0,52,-99.99,,,-99.99,,2013-03-24 23:02:00,
2013-03-24 17:11:00,26.0,12.0,-100.00,NW,307,9.0,13.0,56,-99.99,,,-99.99,,2013-03-24 23:11:00,
2013-03-24 17:22:00,26.0,12.0,-100.00,NW,307,7.0,12.0,55,-99.99,,,-99.99,,2013-03-24 23:22:00,
2013-03-24 17:32:00,26.0,12.0,-100.00,NW,307,7.0,12.0,55,-99.99,,,-99.99,,2013-03-24 23:32:00,
2013-03-24 17:42:00,26.0,15.0,-100.00,WNW,289,9.0,14.0,62,-99.99,,,-99.99,,2013-03-24 23:42:00,
2013-03-24 17:52:00,26.0,15.0,-100.00,WNW,286,12.0,13.0,62,-99.99,,,-99.99,,2013-03-24 23:52:00,
2013-03-24 18:02:00,26.0,15.0,-100.00,WNW,286,10.0,12.0,62,-99.99,,,-99.99,,2013-03-25 00:02:00,
2013-03-24 18:12:00,26.0,14.0,-100.00,NW,306,8.0,12.0,58,-99.99,,,-99.99,,2013-03-25 00:12:00,
2013-03-24 18:22:00,26.0,14.0,-100.00,NW,306,8.0,12.0,58,-99.99,,,-99.99,,2013-03-25 00:22:00,
2013-03-24 18:32:00,26.0,14.0,-100.00,NW,306,8.0,12.0,58,-99.99,,,-99.99,,2013-03-25 00:32:00,
2013-03-24 18:42:00,28.0,13.0,-100.00,West,278,8.0,10.0,52,-99.99,,,-99.99,,2013-03-25 00:42:00,
2013-03-24 18:52:00,28.0,13.0,-100.00,West,278,8.0,10.0,52,-99.99,,,-99.99,,2013-03-25 00:52:00,
2013-03-24 19:02:00,28.0,13.0,-100.00,West,278,8.0,10.0,52,-99.99,,,-99.99,,2013-03-25 01:02:00,
2013-03-24 19:12:00,27.0,11.0,-100.00,WNW,297,7.0,10.0,50,-99.99,,,-99.99,,2013-03-25 01:12:00,
2013-03-24 19:21:00,27.0,11.0,-100.00,WNW,297,7.0,10.0,50,-99.99,,,-99.99,,2013-03-25 01:21:00,
2013-03-24 19:32:00,26.0,9.0,-100.00,WNW,285,7.0,8.0,47,-99.99,,,-99.99,,2013-03-25 01:32:00,
2013-03-24 19:42:00,26.0,10.0,-100.00,WNW,285,6.0,8.0,51,-99.99,,,-99.99,,2013-03-25 01:42:00,
2013-03-24 19:52:00,26.0,10.0,-100.00,WNW,285,6.0,8.0,51,-99.99,,,-99.99,,2013-03-25 01:52:00,
2013-03-24 20:02:00,26.0,10.0,-100.00,WNW,285,6.0,8.0,51,-99.99,,,-99.99,,2013-03-25 02:02:00,
2013-03-24 20:11:00,25.0,11.0,-100.00,WNW,285,6.0,6.0,55,-99.99,,,-99.99,,2013-03-25 02:11:00,
2013-03-24 20:21:00,25.0,11.0,-100.00,WNW,285,6.0,6.0,55,-99.99,,,-99.99,,2013-03-25 02:21:00,
2013-03-24 20:32:00,24.0,12.0,-100.00,WSW,240,4.0,7.0,59,-99.99,,,-99.99,,2013-03-25 02:32:00,
2013-03-24 20:42:00,24.0,12.0,-100.00,WSW,240,4.0,7.0,59,-99.99,,,-99.99,,2013-03-25 02:42:00,
2013-03-24 20:51:00,23.0,13.0,-100.00,West,264,5.0,5.0,62,-99.99,,,-99.99,,2013-03-25 02:51:00,
2013-03-24 21:02:00,23.0,13.0,-100.00,West,264,5.0,5.0,62,-99.99,,,-99.99,,2013-03-25 03:02:00,
2013-03-24 21:12:00,22.0,12.0,-100.00,WNW,293,1.0,2.0,66,-99.99,,,-99.99,,2013-03-25 03:12:00,
2013-03-24 21:22:00,22.0,12.0,-100.00,WNW,293,1.0,2.0,66,-99.99,,,-99.99,,2013-03-25 03:22:00,
2013-03-24 21:33:00,22.0,12.0,-100.00,WNW,293,1.0,2.0,66,-99.99,,,-99.99,,2013-03-25 03:33:00,
2013-03-24 21:42:00,20.0,11.0,-100.00,WNW,301,2.0,3.0,67,-99.99,,,-99.99,,2013-03-25 03:42:00,
2013-03-24 21:52:00,20.0,10.0,-100.00,WNW,284,5.0,5.0,64,-99.99,,,-99.99,,2013-03-25 03:52:00,
2013-03-24 22:02:00,20.0,10.0,-100.00,WNW,284,5.0,5.0,64,-99.99,,,-99.99,,2013-03-25 04:02:00,
2013-03-24 22:12:00,18.0,10.0,-100.00,WNW,290,4.0,5.0,69,-99.99,,,-99.99,,2013-03-25 04:12:00,
2013-03-24 22:22:00,18.0,10.0,-100.00,WNW,290,4.0,5.0,69,-99.99,,,-99.99,,2013-03-25 04:22:00,
2013-03-24 22:32:00,18.0,10.0,-100.00,WNW,290,4.0,5.0,69,-99.99,,,-99.99,,2013-03-25 04:32:00,
2013-03-24 22:42:00,18.0,10.0,-100.00,West,275,6.0,7.0,71,-99.99,,,-99.99,,2013-03-25 04:42:00,
2013-03-24 22:52:00,17.0,10.0,-100.00,WNW,285,5.0,6.0,73,-99.99,,,-99.99,,2013-03-25 04:52:00,
2013-03-24 23:02:00,16.0,10.0,-100.00,WNW,285,4.0,4.0,75,-99.99,,,-99.99,,2013-03-25 05:02:00,
2013-03-24 23:12:00,16.0,10.0,-100.00,WNW,282,3.0,4.0,76,-99.99,,,-99.99,,2013-03-25 05:12:00,
2013-03-24 23:22:00,16.0,10.0,-100.00,WNW,282,3.0,4.0,76,-99.99,,,-99.99,,2013-03-25 05:22:00,
2013-03-24 23:32:00,16.0,10.0,-100.00,West,278,4.0,4.0,76,-99.99,,,-99.99,,2013-03-25 05:32:00,
2013-03-24 23:42:00,14.0,8.0,-100.00,West,274,5.0,5.0,76,-99.99,,,-99.99,,2013-03-25 05:42:00,
2013-03-24 23:51:00,14.0,8.0,-100.00,West,274,5.0,5.0,76,-99.99,,,-99.99,,2013-03-25 05:51:00,